THOR ABLESTAR DEB, 323

Orbit data source: Space-Track

THOR ABLESTAR DEB, 323 is space debris in LEO originally from a launch on Thu, 29 Jun 1961 UTC launched from the Air Force Eastern Test Range (AFETR). Debris objects in space refer to the collection of defunct objects orbiting the Earth. Examples of debris include non-operational satellites, rocket bodies, and fragments generated from explosions, collisions, or faulty payload assembly.

Loading next visibility...
Identifier
323, 1961-015CZ
Orbit
LEO
Country
Flag of USUS
Related business
Manufacturer
Unknown
Mission
Spacecraft
Bus & Motor
Unknown
Mass
Unknown
Launch date (UTC)
1961-06-29 (65 years ago)
Launch vehicle
Unknown
Launch site
Air Force Eastern Test Range (AFETR)
Object type
Payload
Rocket body
Debris
Shape & HBR
Unknown shape, 0.1 m
Radar Cross Section
Small (<0.1 m²)

Expand to show TLE details & history
Last TLE update: 14 hours ago

TLE from 14 hours ago
0 THOR ABLESTAR DEB
1 00323U 61015CZ  26127.53780848  .00000470  00000-0  27083-3 0  9996
2 00323  66.8379 202.9174 0069760 119.4840 241.3235 14.16407216322716
Epoch: 2026-05-07T12:54Z
TLE epoch observation values (Epoch: 2026-05-07T12:54:26.652Z)
Latitude
-0.00003°
Longitude
143.92382°
Altitude
864.06 km
Speed
7.408 km/s
True Right ascension
13h 31m 40s
True Declination
0° 00' 00"
Sunlit
Object was in full shadow at epoch
Visualization orbit readout
Latitude
Unknown
Longitude
Unknown
Altitude
Unknown
Speed
Unknown
Apparent Right ascension
Unknown
Apparent Declination
Unknown
Sunlit
N/A
Visualization observer readout
Local Sidereal Time
10:53:24
Azimuth
Unknown
Elevation
Unknown
Doppler factor
Unknown
Orbital elements
Apogee altitude
886.223 km
Perigee altitude
785.573 km
Semi-major axis
7,214.035 km
Eccentricity
0.00698
Inclination
66.8379°
RAAN
202.9174°
Arg. of periapsis
119.484°
True anomaly
240.6251°
Mean anomaly
241.3235°
Eccentric anomaly
240.97401°
Mean motion
3.54222 °/min
Orbital period
101.63 mins
BSTAR
0.00027083

Documentation

Showing up to 5 results
|